Location: ??????
(55.0357°N, 38.6195°E)
Time: 03:23:37
(UTC+00:00)

NOSS 3-1 (A) - Visible Passes

Search period start: 25 July 2024 00:00
Search period end: 04 August 2024 00:00
Orbit: 657 x 1552 km, 63.4° (Epoch: 19 July)

Date Brightness Start Highest point End Pass type
(mag) Time Alt. Az. Time Alt. Az. Time Alt. Az.
25 Jul 3.2 19:17:21 10° SW 19:22:32 89° SE 19:28:57 10° NE visible
25 Jul 4.7 21:08:38 10° W 21:14:00 44° NNW 21:20:41 10° ENE visible
25 Jul 5.0 23:00:14 10° WNW 23:06:10 45° NNE 23:13:31 10° E visible
26 Jul 3.2 18:32:27 10° SSW 18:37:29 64° SE 18:43:39 10° NE visible
26 Jul 4.4 20:23:15 10° W 20:28:34 50° NNW 20:35:11 10° NE visible
26 Jul 5.0 22:14:56 10° WNW 22:20:40 42° N 22:27:44 10° ENE visible
27 Jul 4.4 00:06:03 10° NW 00:12:37 65° NNE 00:20:47 10° ESE visible
27 Jul 3.9 19:37:55 10° WSW 19:43:13 61° NNW 19:49:48 10° NE visible
27 Jul 5.0 21:29:36 10° WNW 21:35:09 41° N 21:41:59 10° ENE visible
27 Jul 4.7 23:20:54 10° NW 23:27:13 55° NNE 23:35:06 10° ESE visible
28 Jul 3.5 18:52:44 10° WSW 18:57:57 78° NW 19:04:28 10° NE visible
28 Jul 4.8 20:44:11 10° W 20:49:37 42° N 20:56:20 10° ENE visible
28 Jul 4.8 22:35:43 10° WNW 22:41:47 47° NNE 22:49:19 10° E visible
29 Jul 4.0 00:26:33 10° NW 00:33:23 89° NNE 00:41:53 10° SE visible
29 Jul 4.6 19:58:48 10° W 20:04:09 46° NNW 20:10:48 10° ENE visible
29 Jul 5.0 21:50:28 10° WNW 21:56:18 43° N 22:03:31 10° E visible
29 Jul 4.2 23:41:27 10° NW 23:48:07 73° NE 23:56:27 10° ESE visible
30 Jul 4.2 19:13:26 10° WSW 19:18:44 54° NNW 19:25:20 10° NE visible
30 Jul 5.0 21:05:08 10° WNW 21:10:47 41° N 21:17:44 10° ENE visible
30 Jul 4.5 22:56:19 10° NW 23:02:47 60° NNE 23:10:51 10° ESE visible
31 Jul 4.1 00:47:05 10° NW 00:53:59 63° SW 01:02:26 10° SSE visible
31 Jul 3.8 18:28:09 10° WSW 18:33:25 68° NNW 18:39:59 10° NE visible
31 Jul 4.9 20:19:46 10° WNW 20:25:15 41° N 20:32:02 10° ENE visible
31 Jul 4.7 22:11:09 10° NW 22:17:23 51° NNE 22:25:06 10° E visible
01 Aug 3.9 00:01:57 10° NW 00:08:50 80° SW 00:17:22 10° SE visible
01 Aug 4.7 19:34:21 10° W 19:39:45 44° NNW 19:46:25 10° ENE visible
01 Aug 4.9 21:25:57 10° WNW 21:31:55 45° NNE 21:39:19 10° E visible
01 Aug 4.0 23:16:51 10° NW 23:23:37 82° NE 23:32:04 10° SE visible
02 Aug 4.5 18:48:58 10° W 18:54:18 49° NNW 19:00:55 10° NE visible
02 Aug 4.9 20:40:40 10° WNW 20:46:24 42° N 20:53:31 10° ENE visible
02 Aug 4.3 22:31:45 10° NW 22:38:19 67° NNE 22:46:33 10° ESE visible
03 Aug 4.1 00:22:31 10° NW 00:29:21 53° SW 00:37:40 10° SSE visible
03 Aug 4.1 18:03:38 10° WSW 18:08:55 59° NNW 18:15:31 10° NE visible
03 Aug 4.9 19:55:19 10° WNW 20:00:53 41° N 20:07:45 10° ENE visible
03 Aug 4.5 21:46:36 10° NW 21:52:57 56° NNE 22:00:53 10° ESE visible
03 Aug 3.9 23:37:21 10° NW 23:44:16 70° SW 23:52:47 10° SE visible
